This demonstration page uses our WeatherBlox Daily Observations layout. Learn more.

Left ArrowRight Arrow

38.20091, -84.87328

Hourly Observations for July 13, 2017

Temp ( °F °C ) Dew Point ( °F °C ) Humidity (%) Winds ( mph kmh ) Pressure ( in mb ) Visibility ( mi km ) Precip ( " mm )
12:53 am 00:53 Partly Cloudy 77 25 71 21.7 82 82 Calm 30.04 1017 10 16 0.00 0.00
1:53 am 01:53 Clear 76 24.4 71 21.7 85 85 S 3 6 30.06 1018 10 16 0.00 0.00
2:53 am 02:53 Clear 75 23.9 70 21.1 84 84 SSW 5 7 30.06 1018 10 16 0.00 0.00
3:53 am 03:53 Clear 76 24.4 71 21.7 85 85 SSW 7 11 30.04 1017 10 16 0.00 0.00
4:53 am 04:53 Clear 75 23.9 70 21.1 84 84 SW 3 6 30.04 1017 10 16 0.00 0.00
5:53 am 05:53 Clear 75 23.9 70 21.1 84 84 SSW 5 7 30.05 1018 10 16 0.00 0.00
6:53 am 06:53 Sunny 75 23.9 71 21.7 88 88 SW 5 7 30.07 1018 10 16 0.00 0.00
7:53 am 07:53 Sunny 77 25 71 21.7 82 82 SW 8 13 30.08 1019 10 16 0.00 0.00
8:53 am 08:53 Sunny 80 26.7 72 22.2 76 76 SW 14 22 30.08 1019 10 16 0.00 0.00
9:53 am 09:53 Sunny 83 28.3 73 22.8 72 72 SW 13 20 30.09 1019 10 16 0.00 0.00
10:53 am 10:53 Partly Cloudy 86 30 74 23.3 67 67 SW 14 22 30.10 1019 10 16 0.00 0.00
11:53 am 11:53 Partly Cloudy 88 31.1 73 22.8 61 61 WSW 10 17 30.11 1020 10 16 0.00 0.00
12:53 pm 12:53 Mostly Sunny 89 31.7 72 22.2 57 57 SW 15 24 30.09 1019 10 16 0.00 0.00
1:53 pm 13:53 Mostly Sunny 90 32.2 73 22.8 58 58 SW 10 17 30.07 1018 10 16 0.00 0.00
2:53 pm 14:53 Mostly Sunny 90 32.2 71 21.7 54 54 SW 10 17 30.06 1018 10 16 0.00 0.00
3:53 pm 15:53 Sunny 91 32.8 72 22.2 54 54 SW 12 19 30.04 1017 10 16 0.00 0.00
4:53 pm 16:53 Mostly Sunny 91 32.8 72 22.2 54 54 SW 13 20 30.03 1017 10 16 0.00 0.00
5:53 pm 17:53 Sunny 90 32.2 70 21.1 52 52 WSW 9 15 30.02 1017 10 16 0.00 0.00
6:53 pm 18:53 Sunny 89 31.7 70 21.1 53 53 SW 9 15 30.00 1016 10 16 0.00 0.00
7:53 pm 19:53 Sunny 87 30.6 73 22.8 63 63 SW 7 11 30.02 1017 10 16 0.00 0.00
8:53 pm 20:53 Sunny 84 28.9 72 22.2 67 67 WSW 3 6 30.02 1017 10 16 0.00 0.00
9:53 pm 21:53 Clear 82 27.8 73 22.8 74 74 SSW 7 11 30.02 1017 10 16 0.00 0.00
10:53 pm 22:53 Clear 81 27.2 73 22.8 77 77 SW 6 9 30.05 1018 10 16 0.00 0.00
11:53 pm 23:53 Clear 80 26.7 72 22.2 76 76 SSW 7 11 30.04 1017 10 16 0.00 0.00

Powered by AerisWeather